Location: Gwatt
(46.7204°N, 7.6223°E)
Time: 02:48:12
(UTC+00:00)

Courier 1B Rocket - Pass Details

Date: 24 January 2021
Orbit: 920 x 1202 km, 28.3° (Epoch: 05 March)

Event Time Altitude Azimuth Distance (km) Brightness Sun altitude
Rises 07:35:33 0° 231° (SW) 3,769 7.9 4.0°
Reaches altitude 10° 07:39:16 10° 212° (SSW) 2,875 7.5 4.6°
Maximum altitude 07:43:28 17° 175° (S) 2,468 7.8 5.2°
Drops below altitude 10° 07:47:51 10° 138° (SE) 3,001 9.7 5.8°
Sets 07:51:51 0° 120° (ESE) 4,011 10.7 6.3°
